Regional Weather Roundup
Issued by NWS Sioux Falls, SD

Home | Current Version | Previous Version | Text Only | Print | Product List | Glossary On
Versions: 1 2 3 4 5 6 7 8 9 10 11 12 13 14 15 16 17 18 19 20 21 22 23 24 25 26 27 28 29 30 31 32 33 34 35 36 37 38 39 40 41 42 43 44 45 46 47 48 49 50
000
ASUS43 KFSD 292110
RWRFSD

WEATHER ROUNDUP FOR SE SOUTH DAKOTA/SW MINNESOTA/NW IOWA
NATIONAL WEATHER SERVICE SIOUX FALLS SD
400 PM CDT MON MAY 29 2017

NOTE: "FAIR" INDICATES FEW OR NO CLOUDS BELOW 12,000 FEET WITH NO
SIGNIFICANT WEATHER AND OR OBSTRUCTIONS TO VISIBILITY.


SDZ038>040-050-052>070-292200-
SOUTHEAST SOUTH DAKOTA

CITY           SKY/WX    TMP DP  RH WIND       PRES   REMARKS
BROOKINGS      CLOUDY    58  46  64 NW21      29.98R
CHAMBERLAIN    PTSUNNY   69  39  33 W10G24    30.04F
HURON          CLOUDY    64  44  48 NW20      30.01F
MADISON        MOCLDY    59  46  63 NW24G35   30.00S
MITCHELL       CLOUDY    65  44  46 NW13      30.03F
SIOUX FALLS    PTSUNNY   64  46  52 NW22G32   29.98S
WINNER         FAIR      70  40  33 NW17G25   30.06F
YANKTON        PTSUNNY   66  44  45 NW16G28   30.02R
$$

MNZ071-072-080-081-089-090-097-098-292200-
SOUTHWEST MINNESOTA

CITY           SKY/WX    TMP DP  RH WIND       PRES   REMARKS
FAIRMONT       CLOUDY    62  45  53 NW24G31   29.92S
JACKSON        CLOUDY    57  48  72 NW12G17   29.95R
LUVERNE        CLOUDY    63  39  42 NW18G25   29.97S
MARSHALL       CLOUDY    59  50  72 NW21      29.93F
MONTEVIDEO     MOSUNNY   57  52  82 N14G23    29.93R
PIPESTONE      PTSUNNY   61  43  51 NW14G29   29.97S
REDWOOD FALLS  PTSUNNY   64  46  52 NW17G29   29.90S
TRACY          CLOUDY    56  52  86 NW14      29.95S
WINDOM         PTSUNNY   61  50  67 W28       29.94F
WORTHINGTON    CLOUDY    61  47  59 W23G29    29.96R
$$

IAZ001>003-012>014-020>022-031-032-NEZ013-014-SDZ071-292200-
NORTHWEST IOWA

CITY           SKY/WX    TMP DP  RH WIND       PRES   REMARKS
CHEROKEE       CLOUDY    65  43  44 NW16G25   29.97S
DENISON        SUNNY     72  41  33 NW21G29   29.99S
ESTHERVILLE    CLOUDY    64  44  48 NW23      29.93S
LE MARS        MOSUNNY   68  43  40 NW15G26   29.99F
ORANGE CITY    MOSUNNY   66  45  45 NW23G29   29.98S
SHELDON        PTSUNNY   66  41  39 NW21G29   29.95S
SIOUX CITY     PTSUNNY   68  44  42 NW17G26   29.98S
SPENCER        CLOUDY    66  44  45 NW20G30   29.95S
STORM LAKE       N/A     68  41  37 NW23G30   29.97S
$$

ABBREVIATIONS USED IN REMARKS
   TC - TEMPERATURE IN CELSIUS
  WCI - WIND CHILL INDEX
   HX - HEAT INDEX
  VSB - VISIBILITY




USA.gov is the U.S. government's official web portal to all federal, state and local government web resources and services.